Temp
16 16 16 16 16 16 16 16 16 16 16 16 16 16 16 16 16 15 15 15 15 15 15 15 14 14 14 14 15 15 15 15 14 14 13 13 12 12 13 13 13 13 12 12 12 11 11 11 10 10 9 9 9 8 8 8 8 7 7 6 6 6 6 6 6 6 5 5 5 5 5 4 4 4 4 4 4 4 4 4 4 4 4 4 4 4
16 16 16 16 16 16 16 16 16 16 15 15 15 16 16 15 15 15 15 15 14 14 14 14 14 14 14 14 14 14 14 14 14 14 13 13 12 12 12 12 12 12 12 12 12 11 11 10 10 9 9 9 8 8 8 7 7 7 7 6 6 6 6 6 5 5 5 5 5 4 4 4 4 4 4 4 4 4 4 4 4 4 4 4 4 4
17 17 16 16 16 16 16 16 16 15 15 15 15 15 15 15 14 14 14 14 14 14 14 14 13 13 13 13 13 14 14 14 14 13 13 12 12 11 12 12 12 12 12 11 11 10 10 9 9 9 8 8 8 7 7 7 7 6 6 6 5 5 5 5 5 5 5 5 4 4 4 4 4 4 4 4 3 3 3 3 3 3 3 3 3 3
16 16 17 16 16 16 16 16 16 15 15 15 15 15 14 14 14 14 14 14 14 13 13 13 13 12 12 12 12 13 13 13 13 13 13 12 11 11 11 11 12 12 11 11 10 10 9 9 8 8 8 8 7 7 7 6 6 6 5 5 5 5 5 5 5 5 4 4 4 4 3 3 3 3 3 3 3 3 3 3 3 3 3 3 3 3
15 16 16 16 16 16 16 16 16 15 15 15 15 14 14 13 13 13 13 13 13 12 12 12 12 12 11 11 12 12 12 13 13 12 12 11 11 11 11 11 11 11 11 10 9 9 8 8 8 8 7 7 7 7 6 6 6 5 5 4 4 4 5 4 4 4 4 4 3 3 3 3 3 3 3 3 3 3 3 3 3 3 3 3 3 3
14 15 16 16 16 16 16 15 15 15 15 14 14 13 13 13 13 12 12 12 12 12 11 11 11 11 11 11 12 12 12 12 12 12 11 11 10 10 10 10 10 10 10 9 9 8 8 8 7 7 7 6 6 6 6 5 5 5 4 4 4 4 4 4 4 4 4 3 3 3 3 3 3 3 3 2 2 2 2 2 3 3 3 3 3 3
14 14 15 15 16 16 15 15 15 15 14 14 13 13 12 12 12 11 11 11 11 11 11 10 10 10 11 11 11 11 11 11 11 11 10 10 10 9 9 9 9 9 9 9 8 8 7 7 7 7 6 6 6 5 5 5 5 4 4 4 4 4 4 4 3 3 3 3 3 3 3 2 2 2 2 2 2 2 2 2 2 2 2 2 3 3
13 14 14 15 15 15 15 15 15 14 14 13 13 12 11 11 11 10 10 10 10 10 10 9 9 9 10 10 10 10 10 10 10 10 9 9 9 9 9 8 8 8 8 8 7 7 7 6 6 6 6 5 5 5 5 4 4 4 3 3 4 4 4 3 3 3 3 3 3 2 2 2 2 2 2 2 2 2 2 2 2 2 2 2 2 2
13 13 14 14 14 14 14 14 14 14 14 13 12 12 11 10 10 10 9 9 9 9 9 9 8 8 9 9 9 9 9 8 8 8 8 8 8 8 8 8 8 7 7 7 7 6 6 6 5 5 5 5 4 4 4 4 4 3 3 3 3 4 3 3 3 3 3 3 2 2 2 2 2 2 2 2 2 2 2 2 2 2 2 2 2 2
12 13 13 14 14 14 13 13 13 13 13 13 12 11 11 10 9 9 9 8 8 8 8 8 8 8 8 8 8 8 7 7 7 7 8 8 8 8 8 7 7 7 7 6 6 5 5 5 5 5 5 4 4 4 3 3 3 3 3 3 3 3 3 3 3 3 3 3 2 2 2 2 2 2 2 2 1 1 1 1 2 2 2 2 2 2
12 12 13 13 13 13 13 13 13 13 13 12 12 11 11 10 9 9 8 8 8 8 8 7 7 7 7 7 7 7 7 6 6 6 7 7 7 7 7 7 7 6 6 6 5 5 5 4 4 4 4 4 4 3 3 3 2 2 3 3 3 3 3 3 3 3 2 2 2 2 2 2 2 2 2 1 1 1 1 1 1 2 2 2 2 2
12 12 12 13 12 12 12 12 12 12 12 11 11 10 10 9 9 9 8 8 8 8 8 7 7 7 7 7 7 6 6 5 5 6 6 6 6 6 6 6 6 6 5 5 5 4 4 4 4 4 4 3 3 3 3 2 2 2 3 3 3 3 3 3 2 2 2 2 2 2 2 2 2 2 2 1 1 1 1 1 1 1 2 2 2 2
12 12 12 12 12 12 12 12 11 10 10 11 11 10 10 10 9 9 9 9 9 9 8 7 7 7 7 7 6 6 5 5 5 5 5 5 5 5 5 5 5 5 5 4 4 4 4 4 4 4 3 3 3 3 2 2 2 2 3 3 3 3 2 2 2 2 2 2 2 2 2 2 2 1 1 1 1 1 1 1 1 1 2 2 2 2
12 12 12 12 12 12 12 12 11 10 10 10 11 11 11 10 10 9 9 9 9 9 9 7 7 6 6 6 6 5 5 4 4 4 4 4 5 5 5 5 5 4 4 4 4 3 3 3 3 3 3 3 2 2 2 2 2 3 3 3 2 2 2 2 2 2 2 2 2 2 2 2 1 1 1 1 1 1 1 1 1 1 1 2 2 1
12 12 12 12 12 12 12 12 11 11 11 11 11 11 11 10 9 8 8 9 9 9 8 7 6 6 5 5 5 5 4 4 4 4 4 4 4 4 4 4 4 4 4 3 3 3 3 3 3 3 2 2 2 2 2 2 2 2 2 2 2 2 2 2 2 2 2 2 2 2 1 1 1 1 1 1 1 1 1 1 1 1 1 1 1 1
12 12 12 12 12 12 12 12 12 11 11 11 10 10 10 9 9 9 9 9 9 8 7 6 5 5 5 4 4 4 4 4 3 3 3 3 3 3 3 3 3 3 3 3 3 3 3 3 3 2 2 2 2 2 2 2 2 2 2 2 2 2 2 2 2 2 2 2 2 1 1 1 1 1 1 1 1 1 1 1 1 1 1 1 1 1
12 11 12 12 12 12 12 12 12 11 11 11 10 10 10 9 9 9 9 9 9 8 7 6 6 5 5 4 4 3 3 3 3 3 3 3 2 2 3 3 2 2 2 2 2 2 2 2 2 2 2 2 1 1 2 2 2 2 2 2 2 2 2 2 2 2 2 1 1 1 1 1 1 1 1 1 1 1 1 1 1 1 1 1 1 1
12 11 11 12 12 12 12 12 12 11 11 11 10 10 10 10 9 9 9 8 8 7 6 6 6 6 5 5 4 3 3 3 3 3 3 2 2 2 2 2 2 2 1 1 1 2 2 2 2 2 1 1 1 1 1 2 2 2 2 2 2 2 2 2 2 2 1 1 1 1 1 1 1 1 1 1 1 1 1 1 1 1 1 1 1 1
11 12 11 11 11 12 12 12 12 12 11 11 10 10 10 9 9 9 8 8 8 7 7 6 6 7 6 6 5 4 3 3 3 3 3 3 2 1 1 1 1 1 1 1 1 1 1 2 2 2 1 0 0 1 1 2 2 2 2 2 2 2 2 2 2 1 1 1 1 1 1 1 1 0 0 1 1 1 1 1 1 0 0 0 0 0
11 11 12 12 12 12 11 11 11 11 11 11 11 10 10 10 9 9 8 8 8 7 7 7 7 7 7 7 6 4 3 2 3 3 3 2 2 1 0 0 1 1 0 0 0 1 1 1 1 1 0 0 0 1 1 2 2 2 2 2 2 2 2 1 1 1 1 1 1 1 1 1 0 0 0 0 0 1 1 0 0 0 0 0 0 0
11 11 11 12 11 11 11 11 11 11 11 11 11 10 10 10 9 9 8 8 7 7 7 7 7 7 7 7 6 3 2 2 2 2 3 2 1 0 -0 -0 0 0 0 -0 -0 0 1 1 1 0 0 0 1 1 2 2 2 2 2 2 2 2 1 1 1 1 1 1 1 1 1 0 0 0 0 0 0 0 0 0 0 0 0 0 0 0
11 11 11 11 11 11 11 11 11 11 11 11 11 10 10 10 9 9 8 7 7 7 7 7 7 7 7 6 5 3 2 2 2 3 3 2 1 -0 -1 -1 -0 -0 -0 -0 -0 -0 0 1 1 0 0 1 1 2 2 2 2 2 2 2 2 2 1 1 1 1 1 1 1 1 0 0 0 -0 -0 -0 0 0 0 0 0 0 0 0 0 0
10 11 11 11 11 11 11 11 11 11 11 11 11 10 10 10 9 9 8 7 7 7 7 7 6 5 5 4 3 2 2 2 2 3 3 2 1 -1 -1 -1 -1 -0 -0 -0 -1 -0 0 0 0 0 0 1 1 1 1 1 1 1 2 1 1 1 1 1 1 1 1 1 1 0 0 0 -0 -0 -0 -0 -0 -0 0 0 0 0 0 0 0 0
11 11 11 11 11 11 11 11 11 11 11 11 11 11 10 10 10 10 9 8 8 7 6 4 2 1 2 2 1 1 1 1 2 2 2 2 1 -1 -1 -1 -1 -1 -0 -1 -1 -1 -0 -0 -0 0 1 1 1 1 1 1 1 1 1 1 1 1 1 1 1 1 1 1 0 0 0 -0 -0 -0 -0 -0 -0 -0 -0 -0 -0 0 0 0 -0 -0
10 11 11 11 11 11 11 11 11 11 11 11 11 10 10 10 10 9 9 8 7 5 3 2 1 -0 -0 -0 -0 -0 -0 1 1 2 2 2 1 -1 -2 -1 -1 -1 -1 -1 -1 -1 -0 -1 -0 0 1 1 1 1 1 1 1 1 1 1 1 1 1 1 1 1 1 1 0 0 0 -0 -0 -0 -0 -0 -0 -0 -0 -0 -0 -0 -0 -0 -0 -0
10 10 10 10 10 11 11 11 11 11 11 11 11 10 10 10 9 8 7 6 4 3 2 1 1 0 -0 -1 -1 -1 -1 -0 0 1 2 2 0 -1 -2 -2 -1 -1 -1 -1 -1 -1 -1 -1 -0 0 1 1 1 1 1 1 1 1 1 1 1 1 1 1 1 1 1 1 0 0 0 -0 -0 -0 -0 -0 -0 -0 -1 -1 -1 -1 -1 -1 -1 -1
10 10 10 10 10 10 10 10 10 10 11 11 10 10 10 9 7 6 4 4 3 3 2 2 1 1 0 -0 -1 -1 -1 -1 -0 0 1 1 0 -1 -2 -2 -2 -1 -1 -2 -2 -1 -1 -1 -0 0 1 1 1 1 1 1 1 1 1 1 1 1 1 1 1 1 1 1 0 0 -0 -0 -0 -0 -0 -0 -0 -0 -0 -1 -1 -1 -1 -1 -1 -1
9 9 9 9 9 9 9 9 10 10 10 10 10 10 9 8 6 5 4 4 3 3 3 2 2 1 1 0 -0 -1 -1 -1 -1 -1 -0 0 -0 -1 -2 -2 -2 -2 -1 -2 -2 -1 -1 -1 -0 0 1 1 1 1 1 1 1 1 1 1 1 1 1 1 1 1 1 1 0 0 0 -0 -0 -0 -0 -0 -0 -0 -0 -0 -0 -0 -0 -1 -1 -1
9 9 9 9 9 9 9 9 9 9 9 9 9 9 9 8 7 6 6 5 4 3 3 3 3 2 1 0 -0 -1 -2 -2 -2 -1 -1 -1 -1 -2 -2 -2 -2 -2 -1 -2 -2 -2 -1 -1 -0 -0 0 1 1 1 1 1 0 0 0 0 0 0 1 1 1 1 1 0 0 0 0 -0 -0 -0 -0 -0 -0 -0 -0 -0 -0 -0 -0 -1 -1 -1
8 8 8 8 8 8 8 8 8 8 9 9 9 9 9 8 8 8 7 5 4 3 3 3 3 2 1 0 -0 -1 -1 -2 -2 -2 -1 -1 -1 -2 -2 -2 -2 -2 -2 -2 -2 -2 -2 -1 -1 -0 0 0 1 1 0 0 0 0 -0 -0 -0 0 0 0 0 0 0 0 0 0 0 0 0 0 0 -0 -0 -0 -0 -0 -0 -0 -0 -1 -1 -1
7 7 7 7 7 7 7 7 7 7 8 8 9 9 8 8 8 8 7 5 4 4 4 4 3 2 1 1 0 -0 -1 -1 -2 -2 -1 -1 -1 -2 -2 -2 -2 -2 -2 -1 -1 -2 -2 -2 -1 -0 -0 0 0 0 0 0 0 -0 -0 -0 -0 -0 -0 -0 0 0 0 0 0 -0 -0 -0 -0 -0 -0 -0 -0 -0 -0 -0 -0 -0 -0 -1 -1 -1
7 7 7 7 6 6 6 6 7 7 7 8 8 8 8 7 7 6 6 5 5 4 5 4 3 2 1 1 1 0 -0 -1 -2 -2 -1 -1 -1 -2 -2 -2 -2 -2 -1 -1 -1 -2 -2 -2 -2 -1 -1 -0 -0 -0 0 -0 -0 -0 -1 -1 -1 -0 -0 -0 -0 -1 -1 -1 -1 -0 -0 -0 -0 -0 -0 -0 -0 -0 -0 -0 -0 -0 -1 -1 -1 -1
6 6 6 6 5 5 6 6 6 6 7 7 7 7 6 5 5 5 5 5 4 4 4 4 3 2 2 2 1 0 -0 -1 -1 -2 -1 -1 -1 -2 -2 -2 -2 -2 -2 -1 -1 -1 -1 -2 -2 -2 -2 -1 -1 -1 -0 -1 -1 -1 -1 -1 -1 -1 -1 -1 -1 -1 -1 -1 -1 -1 -1 -1 -1 -1 -0 -0 -0 -0 -0 -1 -1 -1 -1 -1 -1 -1
6 5 5 4 4 4 5 5 5 5 5 5 5 4 4 4 4 4 4 4 3 4 4 4 3 2 2 1 0 -1 -1 -1 -1 -2 -1 -1 -2 -2 -2 -2 -2 -2 -2 -2 -1 -2 -2 -3 -3 -3 -2 -2 -1 -1 -1 -1 -1 -1 -1 -1 -1 -1 -1 -1 -1 -1 -1 -1 -1 -1 -1 -1 -1 -1 -1 -1 -1 -1 -1 -1 -1 -1 -1 -1 -1 -1
5 4 4 3 3 3 3 3 3 3 3 3 2 2 2 2 2 2 2 2 3 3 3 3 3 3 2 2 0 -1 -2 -2 -2 -2 -2 -1 -1 -2 -2 -1 -1 -1 -2 -2 -2 -3 -4 -4 -3 -3 -3 -3 -2 -2 -2 -1 -1 -1 -1 -1 -1 -1 -1 -1 -1 -1 -1 -2 -2 -2 -2 -2 -2 -2 -2 -2 -2 -2 -2 -2 -2 -2 -1 -1 -1 -1
3 3 2 2 2 2 1 1 1 1 0 0 0 0 1 1 1 1 1 2 2 2 2 2 2 2 2 2 1 -0 -1 -2 -2 -2 -2 -1 -1 -1 -1 -1 -1 -1 -2 -2 -2 -3 -4 -4 -4 -3 -4 -4 -3 -2 -2 -2 -1 -1 -1 -1 -1 -1 -2 -2 -2 -2 -2 -2 -2 -2 -2 -2 -2 -2 -2 -2 -2 -2 -2 -2 -2 -2 -2 -2 -1 -1
2 2 2 1 1 0 -0 -1 -1 -1 -1 -1 -1 -1 -1 -0 -0 -0 0 1 1 1 1 1 1 1 1 1 1 0 -0 -1 -2 -2 -2 -1 -1 -1 -1 -1 -1 -1 -2 -2 -2 -2 -3 -4 -4 -4 -4 -4 -5 -4 -2 -2 -2 -2 -2 -2 -2 -2 -2 -2 -3 -3 -3 -3 -3 -3 -2 -2 -2 -2 -2 -2 -2 -3 -3 -3 -2 -2 -2 -2 -2 -1
2 2 1 0 -0 -1 -1 -1 -2 -2 -2 -2 -2 -2 -1 -1 -1 -1 -1 -0 0 0 0 0 0 0 1 1 1 1 0 -1 -2 -2 -2 -2 -1 -1 -1 -2 -2 -2 -2 -1 -2 -2 -3 -3 -4 -4 -4 -5 -5 -4 -3 -3 -3 -3 -2 -3 -3 -3 -3 -3 -3 -3 -3 -3 -3 -3 -3 -3 -3 -3 -3 -3 -3 -3 -3 -3 -3 -3 -3 -2 -2 -2
2 2 1 -0 -1 -1 -1 -2 -2 -2 -2 -2 -2 -2 -2 -2 -1 -1 -1 -1 -1 -1 -0 -0 -0 -0 -0 0 0 -0 -1 -1 -2 -2 -2 -2 -1 -1 -1 -2 -2 -2 -2 -2 -2 -2 -2 -3 -4 -5 -5 -6 -6 -5 -4 -3 -3 -3 -3 -3 -3 -3 -3 -3 -3 -3 -3 -3 -3 -3 -3 -3 -3 -3 -3 -3 -3 -3 -3 -3 -3 -3 -3 -3 -2 -2
2 1 0 -0 -1 -1 -2 -2 -2 -3 -3 -3 -2 -2 -2 -2 -2 -2 -2 -2 -2 -1 -1 -1 -1 -1 -1 -1 -1 -1 -2 -2 -2 -2 -2 -2 -1 -1 -1 -1 -2 -2 -2 -2 -2 -2 -2 -3 -4 -5 -5 -6 -7 -7 -5 -4 -4 -4 -4 -4 -4 -4 -3 -3 -3 -3 -3 -4 -4 -4 -3 -3 -3 -4 -4 -4 -3 -3 -3 -3 -3 -3 -3 -3 -3 -3
2 1 -0 -1 -1 -2 -2 -3 -3 -3 -3 -3 -3 -3 -3 -3 -3 -3 -3 -3 -2 -2 -2 -2 -2 -2 -2 -2 -2 -2 -2 -2 -2 -2 -2 -2 -2 -1 -1 -0 -0 -1 -1 -2 -2 -2 -2 -3 -4 -4 -5 -5 -6 -5 -5 -4 -4 -4 -4 -5 -5 -5 -4 -4 -4 -4 -4 -4 -4 -4 -4 -4 -4 -4 -4 -4 -3 -3 -3 -3 -3 -3 -3 -3 -3 -3
1 0 -1 -2 -2 -2 -3 -3 -3 -3 -3 -3 -3 -3 -3 -3 -3 -3 -3 -3 -3 -3 -3 -3 -3 -3 -3 -3 -3 -3 -3 -2 -2 -2 -2 -2 -2 -1 -1 -0 -0 -0 -1 -2 -3 -3 -3 -3 -3 -4 -4 -4 -5 -5 -6 -5 -5 -5 -5 -5 -5 -5 -5 -5 -5 -4 -4 -4 -4 -4 -4 -4 -4 -4 -4 -4 -3 -3 -3 -3 -3 -3 -3 -3 -3 -3
0 -1 -2 -2 -3 -3 -3 -3 -3 -3 -3 -3 -3 -3 -3 -3 -3 -3 -3 -3 -3 -3 -3 -3 -3 -3 -4 -4 -4 -4 -3 -3 -3 -2 -2 -2 -2 -1 -1 -1 -1 -1 -1 -2 -3 -4 -4 -4 -4 -4 -4 -4 -4 -5 -6 -6 -5 -5 -5 -5 -5 -6 -6 -5 -5 -4 -4 -4 -4 -4 -4 -4 -4 -4 -4 -4 -4 -4 -4 -4 -4 -4 -4 -4 -4 -3
-1 -2 -2 -3 -3 -3 -3 -3 -3 -3 -3 -3 -4 -4 -4 -3 -3 -3 -3 -4 -4 -4 -4 -4 -4 -4 -4 -4 -4 -4 -4 -4 -3 -3 -3 -2 -2 -2 -2 -2 -2 -2 -2 -3 -4 -4 -5 -5 -5 -4 -4 -4 -5 -5 -5 -6 -6 -6 -6 -6 -6 -6 -6 -5 -5 -5 -5 -5 -5 -5 -5 -4 -4 -4 -4 -4 -4 -4 -4 -4 -4 -4 -4 -4 -4 -4
-2 -3 -3 -3 -3 -3 -3 -3 -3 -3 -3 -4 -4 -4 -4 -4 -4 -3 -4 -4 -4 -4 -4 -4 -4 -4 -4 -4 -4 -5 -5 -4 -4 -3 -3 -3 -3 -3 -3 -3 -3 -3 -3 -3 -4 -4 -5 -5 -5 -5 -5 -5 -5 -5 -6 -6 -6 -6 -6 -6 -6 -6 -6 -5 -5 -5 -5 -5 -5 -5 -5 -5 -5 -5 -5 -5 -5 -4 -4 -4 -4 -4 -4 -4 -4 -4
-3 -3 -3 -3 -3 -3 -3 -3 -3 -4 -4 -4 -4 -4 -4 -4 -4 -4 -4 -4 -4 -4 -4 -4 -3 -4 -4 -4 -4 -5 -5 -5 -4 -4 -4 -3 -3 -3 -4 -4 -4 -4 -4 -4 -4 -4 -4 -5 -5 -5 -5 -5 -5 -6 -6 -6 -6 -6 -6 -6 -6 -6 -6 -6 -6 -6 -6 -6 -5 -5 -5 -5 -5 -5 -5 -5 -5 -5 -5 -4 -4 -4 -4 -4 -4 -4
-3 -3 -3 -3 -3 -3 -3 -3 -4 -4 -4 -4 -4 -4 -4 -4 -4 -4 -4 -4 -4 -4 -4 -4 -4 -4 -4 -4 -4 -4 -5 -5 -5 -5 -4 -4 -4 -4 -5 -5 -5 -5 -5 -5 -5 -5 -5 -5 -5 -5 -5 -6 -6 -6 -6 -6 -6 -6 -6 -6 -6 -6 -6 -6 -6 -6 -6 -6 -5 -5 -5 -5 -5 -5 -5 -5 -5 -5 -5 -5 -4 -4 -4 -4 -4 -4
-3 -3 -3 -3 -3 -3 -3 -4 -4 -4 -4 -4 -4 -4 -4 -4 -4 -4 -4 -4 -4 -4 -4 -4 -4 -4 -4 -4 -4 -4 -4 -5 -5 -5 -5 -5 -5 -5 -5 -5 -5 -5 -6 -6 -6 -6 -6 -6 -6 -6 -6 -6 -6 -6 -6 -6 -6 -6 -6 -6 -6 -6 -7 -6 -6 -6 -6 -5 -5 -5 -5 -5 -5 -5 -5 -5 -5 -5 -5 -5 -5 -5 -5 -5 -4 -4
-3 -3 -3 -3 -3 -3 -4 -4 -4 -4 -4 -4 -4 -4 -4 -4 -4 -4 -4 -4 -4 -4 -4 -4 -4 -4 -4 -4 -4 -4 -4 -5 -5 -5 -6 -6 -6 -6 -6 -6 -6 -6 -6 -6 -6 -6 -6 -6 -6 -6 -7 -6 -6 -6 -6 -6 -6 -6 -6 -6 -6 -7 -7 -6 -6 -6 -5 -5 -5 -5 -5 -5 -5 -5 -5 -5 -6 -5 -5 -5 -5 -5 -5 -5 -5 -5
-3 -3 -3 -3 -3 -3 -4 -4 -4 -4 -4 -4 -4 -4 -4 -4 -4 -4 -4 -4 -4 -4 -4 -4 -4 -4 -4 -4 -4 -4 -4 -5 -5 -5 -6 -6 -6 -6 -6 -6 -6 -6 -6 -6 -6 -6 -6 -6 -6 -6 -6 -6 -6 -6 -6 -6 -6 -7 -7 -7 -6 -6 -6 -6 -6 -6 -5 -5 -5 -5 -5 -5 -5 -5 -5 -6 -6 -6 -5 -5 -5 -5 -5 -5 -5 -5
-3 -3 -3 -3 -3 -3 -4 -4 -4 -4 -4 -4 -4 -4 -4 -4 -4 -4 -4 -4 -4 -4 -4 -4 -4 -4 -4 -4 -4 -4 -4 -5 -5 -5 -6 -6 -6 -6 -6 -6 -6 -6 -7 -8 -8 -7 -6 -7 -8 -7 -6 -5 -5 -5 -6 -6 -6 -7 -7 -7 -6 -6 -6 -6 -6 -5 -5 -5 -5 -5 -5 -5 -5 -5 -5 -6 -6 -6 -6 -6 -5 -5 -5 -5 -5 -5
Height
630 629 630 630 630 630 628 628 627 627 626 626 626 626 626 627 627 628 628 629 629 630 630 631 631 631 631 631 631 632 632 632 633 634 635 637 639 639 639 639 638 639 639 640 642 643 644 646 647 649 651 653 654 655 657 657 658 659 660 661 662 663 664 664 664 665 665 666 666 667 668 668 669 669 670 670 671 671 671 671 672 672 672 672 672 673
627 627 627 627 627 626 624 624 624 624 623 622 622 622 623 623 624 624 625 626 626 626 627 628 628 628 628 628 628 628 629 629 629 630 631 633 635 636 636 635 635 635 636 637 638 640 642 643 645 647 648 650 651 652 653 654 655 656 657 659 660 661 662 662 662 662 663 663 664 665 666 666 667 667 668 668 668 669 669 669 669 670 670 670 671 671
624 623 623 623 622 622 621 620 620 620 620 619 619 619 620 620 621 621 622 622 623 623 624 624 626 627 627 626 626 626 626 626 627 627 627 629 631 632 632 632 631 632 633 634 636 638 640 642 643 645 646 647 648 649 650 652 653 654 655 657 658 659 660 660 660 660 661 661 662 662 663 664 665 665 666 666 666 667 667 667 667 668 668 668 669 669
622 620 619 619 619 618 617 617 617 617 617 617 617 617 617 617 617 617 618 619 619 620 620 621 622 624 625 625 624 623 623 623 623 624 624 626 628 630 630 629 628 629 630 632 634 637 639 641 642 643 643 644 645 647 648 649 650 652 653 655 656 657 657 657 658 658 658 659 660 661 661 662 663 663 664 664 664 664 665 665 665 666 666 667 667 667
620 617 616 616 615 614 613 613 613 614 614 614 614 614 614 614 614 614 615 616 617 617 617 618 619 621 621 621 621 620 620 620 620 621 622 624 627 629 629 629 628 628 628 630 632 634 637 639 640 641 641 642 643 644 645 646 648 649 651 653 654 655 655 655 656 656 656 657 657 658 659 660 661 661 662 662 662 662 662 663 663 664 664 665 665 665
619 616 614 613 612 611 610 610 610 611 611 611 611 611 611 611 611 612 613 613 614 614 614 615 616 616 617 617 617 617 617 617 618 619 621 623 625 627 628 629 629 629 628 628 628 630 632 634 636 638 639 640 641 642 642 643 645 647 649 651 652 652 653 653 653 654 654 655 656 657 657 658 658 659 659 660 660 660 661 661 662 662 662 663 663 663
617 615 613 611 609 607 607 607 607 608 609 609 608 608 609 609 609 610 610 611 611 612 612 612 613 613 613 613 614 614 615 615 616 617 620 622 623 625 627 628 629 629 627 627 626 627 628 631 632 635 636 638 639 640 640 641 642 644 647 648 650 650 651 651 651 652 652 653 654 654 655 656 657 657 657 657 658 658 658 659 659 660 660 661 661 661
614 612 611 609 607 605 605 604 605 605 606 607 607 607 607 607 607 607 608 608 609 609 610 610 611 611 611 611 611 612 612 613 614 616 617 619 621 622 624 626 627 627 626 625 625 625 627 628 631 632 634 636 637 638 638 639 640 642 644 646 647 648 649 649 649 650 650 651 652 652 653 654 654 655 655 655 656 656 656 657 657 658 658 659 659 659
612 610 608 607 605 603 602 601 601 602 603 603 605 606 606 607 606 606 607 607 607 607 608 608 608 608 608 608 609 609 610 611 612 613 615 616 617 619 621 623 624 625 625 625 625 626 626 628 629 630 632 633 635 636 637 637 638 640 642 643 645 646 646 647 647 647 648 649 650 651 651 652 652 653 653 653 653 654 654 655 655 656 656 657 657 657
610 608 605 603 602 601 599 597 597 598 599 600 601 603 604 605 605 605 606 605 605 605 606 606 606 606 606 606 607 607 608 609 610 611 612 613 614 616 618 619 621 622 622 623 624 625 625 626 627 628 630 632 633 634 635 636 637 638 640 641 643 644 644 645 645 646 646 647 648 649 649 650 650 651 651 651 651 652 652 653 653 654 654 655 655 655
607 606 604 602 600 598 596 594 594 595 596 597 598 600 602 602 602 603 603 603 602 603 603 603 603 603 603 604 605 605 606 607 608 610 610 611 612 613 615 616 617 618 620 622 622 623 623 624 625 626 628 629 631 632 633 634 635 636 638 639 641 641 642 642 643 643 644 645 646 647 647 648 648 648 649 649 649 650 650 651 651 652 652 653 653 653
604 603 601 600 598 597 595 593 592 592 592 595 596 597 598 598 598 599 600 599 598 599 599 599 599 599 600 601 602 603 604 605 606 607 608 609 610 611 612 613 614 616 617 619 620 621 621 622 623 624 626 627 629 630 631 632 633 634 636 637 638 639 640 640 641 642 642 643 644 645 646 646 646 647 647 647 647 648 648 649 649 650 650 651 651 652
600 599 598 596 595 594 593 592 592 591 590 591 592 592 592 592 593 595 595 594 593 593 594 595 596 596 596 597 598 599 601 602 603 604 606 607 608 609 609 610 611 612 614 616 617 618 619 620 621 622 624 625 627 628 629 631 632 632 634 635 636 637 637 638 639 640 641 642 642 643 643 644 644 644 645 645 646 646 647 647 647 648 648 649 649 650
596 596 594 593 591 591 591 591 590 588 587 587 586 586 586 587 589 591 591 590 589 589 590 592 592 592 593 594 595 596 598 599 601 602 603 604 604 605 606 607 607 608 610 612 613 614 616 617 619 620 622 623 625 627 628 629 630 631 632 633 634 634 635 636 637 637 638 639 640 641 641 642 642 642 643 643 644 644 645 645 646 646 647 647 647 648
593 592 591 589 587 586 587 587 587 585 583 583 583 583 584 585 586 587 587 587 586 587 588 589 590 590 591 592 592 594 595 597 599 600 601 601 601 602 603 604 604 605 607 608 609 611 613 615 616 618 620 622 623 624 626 627 628 628 629 630 631 632 633 634 635 636 637 637 638 638 639 639 640 640 641 641 642 642 643 643 644 644 645 645 646 646
591 590 588 586 584 583 582 583 583 583 582 582 581 582 582 582 582 583 583 583 583 585 587 588 589 590 589 589 590 591 593 595 596 597 598 598 599 600 601 602 602 603 604 605 607 608 610 612 613 615 617 619 621 622 623 624 625 626 627 628 629 630 631 632 632 633 634 635 636 636 637 637 638 638 639 639 640 640 641 642 642 642 643 643 644 644
588 587 585 583 581 580 579 579 579 580 581 580 580 580 579 579 579 579 580 580 581 583 584 585 586 587 587 588 588 588 589 591 593 594 596 596 597 597 598 599 600 600 601 602 604 605 607 609 611 613 615 617 618 620 621 622 623 624 625 626 627 627 628 629 631 632 632 633 633 634 635 635 636 636 637 637 638 638 639 640 640 641 641 642 642 642
585 584 582 580 579 577 577 576 576 576 577 577 578 577 576 576 576 577 577 578 579 580 581 582 582 581 582 583 583 583 585 587 589 591 593 594 594 595 596 597 597 598 599 600 601 603 605 607 609 611 613 615 616 618 619 620 621 622 622 623 624 625 626 627 628 629 630 631 631 632 632 633 634 634 635 635 636 637 637 638 638 639 639 640 640 641
582 581 580 578 576 575 575 574 573 572 573 573 574 574 574 574 574 575 575 576 576 577 577 578 577 576 575 575 575 577 579 582 585 588 590 591 591 592 593 595 596 596 597 598 599 601 603 605 607 609 611 612 614 616 617 618 619 619 620 621 622 623 624 625 626 627 628 628 629 630 631 631 632 632 633 633 634 635 635 636 637 637 637 638 638 639
579 578 577 576 574 573 572 572 571 570 570 570 571 571 571 571 572 572 572 572 572 573 573 573 572 571 570 570 570 572 575 579 582 585 586 587 588 589 590 592 593 594 595 596 597 599 601 603 605 607 609 611 612 614 615 616 616 617 618 619 620 621 622 623 624 625 626 627 627 628 628 629 630 630 631 632 632 633 633 634 635 635 636 636 637 637
576 574 573 573 572 571 569 569 568 568 567 567 567 568 567 567 568 568 568 568 569 570 570 570 569 567 567 567 568 569 571 575 579 581 583 585 586 587 588 589 591 592 593 594 595 597 599 602 604 606 608 609 611 612 613 613 614 615 616 617 618 619 620 621 622 623 624 624 625 626 627 627 627 628 629 629 630 631 632 632 633 633 634 634 635 635
573 571 569 569 569 567 566 565 565 565 564 565 565 564 563 564 564 564 564 565 566 566 566 566 565 564 565 566 566 566 567 570 573 576 579 582 584 585 586 587 589 591 592 592 594 596 597 600 602 604 606 607 609 610 610 611 612 613 614 615 617 617 618 619 620 621 622 622 623 624 624 625 626 626 627 627 628 629 629 630 631 631 632 632 633 633
571 568 567 566 565 564 562 562 561 561 560 561 560 560 559 559 559 559 559 560 560 560 561 561 562 563 564 565 565 565 566 567 569 572 576 579 581 582 584 586 588 590 590 591 592 594 596 599 601 603 604 606 607 608 608 609 610 612 612 614 615 616 617 617 618 619 620 620 621 622 622 623 624 624 625 625 626 627 627 628 629 629 630 631 631 631
568 566 564 563 562 561 560 558 557 557 556 556 556 556 555 554 554 554 554 555 556 557 559 561 562 563 564 564 565 565 566 567 568 571 573 575 577 579 582 584 587 588 589 590 591 593 595 597 599 602 603 604 605 606 607 607 608 610 611 612 613 614 615 616 617 617 618 618 619 620 621 621 622 622 623 623 624 625 626 626 627 628 628 629 629 629
565 563 562 560 559 557 557 556 555 554 553 552 552 552 552 551 551 551 552 553 555 557 559 561 563 564 564 564 565 565 566 566 567 568 570 572 575 578 580 582 584 587 588 590 591 592 594 596 598 600 602 602 603 604 605 606 607 608 609 611 612 612 613 614 615 615 616 617 617 618 619 619 620 620 621 622 622 623 624 624 625 626 627 627 627 627
562 560 559 557 556 554 553 552 551 550 549 549 549 549 549 549 549 550 551 552 554 556 558 561 562 562 563 563 564 564 565 566 566 567 567 570 573 577 579 581 583 585 587 589 590 591 593 595 597 599 600 601 601 602 603 604 605 606 608 609 610 611 612 612 613 613 614 615 616 616 617 617 618 618 619 620 621 621 622 623 623 624 625 625 625 625
558 557 555 554 552 551 550 549 548 547 546 546 546 547 546 546 547 549 550 551 552 553 556 558 559 560 562 562 562 563 563 564 565 566 566 568 571 575 577 580 582 584 587 588 589 590 592 594 595 597 598 598 599 600 601 602 603 605 606 607 608 609 610 610 611 612 612 613 614 614 615 616 616 617 617 618 619 619 620 621 622 622 623 623 623 623
554 553 552 550 549 548 547 546 545 544 543 542 543 543 543 543 545 547 547 548 549 551 552 553 554 556 559 560 560 561 562 563 564 564 565 567 570 573 575 578 581 583 585 587 588 590 591 593 594 595 596 597 597 598 599 601 602 603 605 606 607 607 608 608 609 610 610 611 612 612 613 614 614 615 615 616 617 618 619 619 620 621 621 621 621 621
551 550 548 547 546 544 543 542 541 540 539 539 540 541 540 540 540 541 541 543 546 548 549 549 550 552 554 557 559 561 563 563 563 564 565 567 569 572 574 577 580 582 584 587 589 590 592 592 592 593 594 595 596 597 598 599 601 602 603 604 605 606 606 607 607 608 609 609 610 611 611 612 612 613 614 614 615 616 617 617 618 619 619 619 619 619
548 547 545 544 542 542 540 539 538 537 536 536 537 537 536 535 536 536 537 539 542 544 545 546 547 549 552 556 560 562 563 563 563 563 565 567 569 571 573 576 579 581 582 585 588 591 591 591 591 592 592 593 594 595 596 598 599 600 601 602 603 603 604 605 606 606 607 608 608 609 609 610 611 611 612 613 613 614 615 616 616 617 617 617 617 617
546 544 542 541 540 539 538 537 536 534 534 533 534 533 533 532 532 533 534 536 537 539 540 542 544 546 549 553 556 559 559 560 561 562 563 565 567 569 572 575 577 579 580 582 585 587 589 589 589 589 590 591 592 593 595 596 597 598 599 600 601 602 602 603 604 605 605 606 607 607 607 608 609 609 610 611 612 612 613 614 614 615 615 615 615 615
543 541 540 538 537 537 536 535 534 533 532 532 532 531 531 531 531 532 532 532 533 534 536 538 540 543 544 546 548 550 552 554 557 559 561 563 565 567 570 572 575 577 579 579 580 582 585 587 587 587 588 589 591 592 593 595 596 597 598 598 599 600 601 601 602 603 603 604 604 605 606 606 607 607 608 609 610 610 611 612 612 612 613 613 613 613
540 539 537 536 535 535 534 533 532 531 530 530 530 530 529 530 530 531 531 531 532 532 534 535 537 540 542 543 544 546 548 551 554 557 559 561 564 566 569 571 573 576 578 579 579 579 581 583 584 585 587 587 589 591 592 593 595 596 596 597 597 598 599 600 600 601 601 602 602 603 603 604 605 606 607 607 608 608 609 610 610 611 611 611 611 611
538 537 536 535 534 533 532 532 531 530 529 529 528 528 528 529 529 530 530 531 532 532 533 534 535 537 540 542 545 547 549 551 553 555 557 559 561 564 567 570 572 574 576 578 578 579 580 581 582 583 585 587 588 589 591 592 593 594 595 595 596 597 598 598 599 599 599 600 600 601 601 602 603 604 604 605 606 606 607 607 608 608 608 609 609 609
537 536 535 534 533 532 532 531 530 530 529 529 528 528 528 529 529 529 530 531 532 532 533 534 534 535 537 540 543 546 548 549 551 553 555 557 558 561 565 567 569 571 574 575 577 578 579 580 581 582 584 586 587 589 590 591 592 592 593 594 595 595 596 597 597 597 597 598 598 599 599 600 601 602 602 603 603 604 605 605 606 606 606 607 607 607
536 535 534 533 533 532 532 531 531 530 530 529 529 529 529 529 529 530 530 531 532 532 533 534 536 537 537 539 541 543 545 547 549 552 554 556 557 560 563 566 567 569 571 573 575 576 578 580 581 582 583 585 587 588 589 589 590 591 592 592 593 594 595 595 595 596 596 596 597 597 597 598 599 600 600 601 602 602 602 603 603 604 604 605 605 605
535 534 533 533 533 533 533 532 532 532 531 531 530 530 530 530 530 531 531 532 532 533 534 535 537 538 539 540 542 543 544 546 548 551 554 556 558 560 562 564 566 568 569 571 573 575 577 579 581 583 584 585 586 587 587 587 588 589 590 591 592 592 593 593 593 594 594 594 595 595 596 597 597 598 598 599 600 600 601 601 601 602 602 602 603 603
535 534 533 533 533 533 533 533 533 532 532 532 532 531 531 531 531 532 532 532 533 534 535 536 537 539 540 542 543 545 546 547 549 552 554 557 559 560 562 564 567 568 569 570 571 573 575 578 581 583 584 584 584 585 585 586 587 588 589 590 591 591 591 592 592 592 592 592 593 593 594 595 595 596 596 597 597 598 598 598 599 599 600 600 600 601
534 534 533 533 533 533 534 534 534 533 533 533 533 532 532 532 532 533 533 534 534 535 536 537 538 540 542 543 545 547 548 550 551 553 555 557 559 561 562 565 567 568 570 570 571 572 574 577 579 580 582 583 584 584 584 585 586 587 588 589 589 589 590 590 590 591 591 591 591 592 592 593 593 594 594 595 596 596 596 596 597 597 597 598 598 598
534 534 534 534 534 534 534 534 534 534 534 534 534 533 533 533 534 534 535 535 536 537 537 538 539 541 543 545 547 549 550 551 553 554 556 558 560 562 563 565 567 568 570 571 572 573 574 576 577 577 579 580 581 582 583 584 585 586 587 588 588 588 588 588 589 589 589 589 590 590 591 591 592 592 593 593 593 594 594 594 595 595 596 596 596 596
534 534 534 534 534 534 534 534 534 534 534 534 534 534 534 534 535 535 536 537 537 538 539 539 541 542 544 547 549 550 552 553 554 556 557 559 561 563 564 566 567 568 570 571 572 574 574 575 576 577 578 578 579 581 582 583 584 585 586 587 587 587 587 587 587 587 587 588 588 589 589 590 590 591 591 591 592 592 592 592 593 593 594 594 594 594
534 534 534 534 534 534 534 534 534 534 535 535 535 535 535 535 536 536 537 538 539 539 540 541 542 544 546 549 551 552 553 554 556 557 559 560 562 564 565 567 568 569 570 572 573 574 575 575 576 577 577 577 578 580 581 582 583 584 584 585 585 585 586 585 585 586 586 587 587 587 588 588 589 589 589 590 590 590 591 591 591 591 592 592 592 592
535 534 534 533 533 533 534 534 535 535 535 535 536 536 536 536 537 537 537 538 539 540 541 542 543 545 547 550 552 553 555 556 557 559 560 562 563 565 566 567 569 570 571 572 573 574 575 575 576 576 576 577 577 578 580 581 582 582 583 583 584 584 584 583 583 584 585 585 586 587 587 587 587 588 588 588 588 588 589 589 589 589 590 590 590 590
535 534 534 534 534 534 534 535 535 535 536 536 537 537 537 537 537 538 538 539 540 541 542 543 544 546 548 551 553 555 557 558 559 560 561 562 564 565 567 568 569 571 571 572 573 574 575 575 576 576 576 577 577 577 578 579 580 581 581 582 582 582 582 582 582 583 584 584 585 585 586 586 586 586 586 586 586 586 587 587 587 587 587 588 588 588
535 534 534 534 534 535 535 535 536 536 536 537 537 538 538 538 538 539 539 540 541 542 543 544 545 547 550 552 554 556 557 559 560 561 562 563 564 566 567 569 570 571 572 572 573 573 574 575 575 575 576 576 576 577 577 578 579 579 580 580 580 580 580 581 581 582 582 583 583 584 584 585 585 585 584 584 584 584 584 584 584 585 585 586 586 586
535 535 535 535 535 535 535 536 536 536 537 537 538 538 539 539 539 540 540 541 542 543 544 545 546 548 551 553 555 557 558 560 561 562 563 564 565 567 568 569 570 571 572 572 573 573 574 574 574 574 575 575 575 575 576 576 577 577 578 578 579 579 579 579 580 581 581 582 582 582 583 583 583 583 582 582 581 581 582 582 582 582 582 583 583 584
536 536 535 535 536 536 536 536 537 537 537 538 539 539 539 540 540 541 542 542 543 544 546 547 548 550 552 554 556 557 559 560 561 562 563 565 566 567 568 569 570 571 572 572 573 573 573 573 573 574 574 574 574 574 574 574 575 576 576 577 577 577 578 578 578 579 579 580 580 581 581 582 581 581 580 580 579 579 579 579 579 580 580 581 581 581
536 536 536 536 536 536 536 537 537 537 538 538 539 540 540 541 541 542 542 543 544 546 547 548 550 552 553 555 557 557 559 560 562 563 564 565 566 567 569 570 570 571 572 572 572 573 573 573 573 573 573 573 573 572 572 573 573 574 575 575 576 576 576 576 577 577 578 578 579 579 579 579 579 579 578 578 577 577 577 577 577 577 577 578 578 578
537 537 536 536 536 537 537 537 537 537 538 539 540 540 541 542 542 542 543 545 546 547 548 550 551 553 555 557 557 558 559 561 562 563 564 565 567 568 569 570 570 571 571 572 572 572 572 572 572 571 571 571 571 571 571 571 572 573 573 574 574 575 575 575 575 576 576 577 577 577 577 577 577 577 577 577 576 575 574 574 575 575 575 576 576 576
538 537 537 537 537 537 537 537 537 538 538 539 540 541 542 542 543 543 544 546 547 548 550 551 552 554 556 557 558 559 560 561 562 563 564 565 567 567 568 569 570 571 571 572 572 572 571 570 570 569 568 569 569 569 570 570 571 572 572 572 573 573 573 573 574 574 575 575 575 576 576 576 576 576 576 575 574 573 572 572 572 573 573 574 574 574
538 538 537 537 537 537 537 538 538 539 539 540 540 541 542 542 543 544 546 547 548 549 551 552 553 555 556 557 558 559 560 561 562 563 564 565 566 567 568 569 569 570 571 571 571 571 571 570 569 567 567 567 567 568 568 569 570 571 571 572 572 572 572 572 572 573 573 574 574 574 574 574 574 574 574 574 573 572 570 569 570 571 572 572 572 572
Wind_Speed
33 33 33 33 32 31 31 33 33 33 34 34 35 36 37 39 40 42 43 44 45 45 44 44 44 44 45 47 48 49 49 49 48 47 45 43 43 43 43 42 42 42 42 41 41 40 39 37 35 33 32 30 29 28 27 26 25 24 23 23 23 23 23 22 21 21 20 20 19 19 19 19 19 18 18 18 17 17 16 16 16 16 16 15 15 15
33 32 32 32 32 31 31 33 34 34 34 34 35 36 37 38 39 40 42 43 44 44 44 43 43 43 44 46 47 48 49 49 49 48 46 43 42 43 44 43 43 42 42 42 41 40 38 36 34 32 31 30 29 28 27 26 25 24 23 23 24 24 23 22 21 21 20 20 19 19 19 19 18 18 18 17 17 16 16 16 16 16 15 15 15 15
31 30 30 30 30 30 30 31 33 34 35 35 35 36 36 36 37 38 39 41 42 44 44 43 41 39 40 43 45 47 48 48 48 48 46 43 42 43 44 44 43 43 42 41 39 38 36 34 32 31 30 30 29 28 27 26 24 23 23 24 24 24 23 23 22 21 20 20 20 19 19 19 18 18 18 17 17 16 16 15 15 15 15 15 16 16
29 28 29 29 29 31 31 32 32 33 34 35 35 35 34 34 34 36 38 38 39 41 42 42 40 37 37 39 42 44 46 47 48 48 46 43 41 42 43 43 43 43 41 39 37 35 33 32 31 31 30 30 29 28 26 24 23 23 23 24 24 24 24 23 22 22 21 20 20 20 19 19 18 18 18 17 17 16 16 16 15 15 16 16 16 16
28 29 30 29 28 29 31 33 33 33 33 33 33 33 33 33 33 34 35 36 36 37 39 40 39 37 37 39 41 43 45 46 47 46 44 41 40 41 41 41 41 40 39 37 36 34 33 33 32 32 31 30 28 27 25 24 23 23 23 24 24 24 24 23 22 22 21 21 20 20 19 19 18 18 17 17 16 16 16 16 16 16 16 16 16 16
28 30 31 29 27 27 29 31 32 31 30 30 30 31 31 32 32 32 31 32 33 34 35 36 37 38 39 40 42 43 44 45 45 43 41 39 39 39 39 39 37 37 36 36 36 36 35 34 34 33 32 30 28 26 25 24 23 23 23 23 24 24 24 23 22 22 21 21 20 20 20 19 19 18 17 17 16 16 16 16 16 16 16 16 16 17
28 30 31 29 28 28 28 29 30 30 28 26 26 27 28 28 29 28 29 29 30 31 32 33 35 36 38 39 41 42 43 42 42 41 39 38 38 38 38 36 35 34 35 36 36 36 35 34 34 33 31 29 27 26 25 24 23 23 23 23 24 24 24 23 22 22 21 21 20 20 20 19 19 18 18 17 16 16 16 16 16 17 17 17 17 17
26 28 30 29 27 27 27 28 29 29 28 27 24 23 23 24 25 26 27 28 28 28 29 30 31 32 34 36 37 38 38 37 36 36 36 37 37 38 36 35 34 33 34 35 35 34 33 33 32 31 30 28 26 25 24 24 23 23 23 24 24 24 23 23 22 22 21 21 20 20 20 20 19 18 18 17 17 16 16 17 17 17 17 17 17 17
24 25 27 28 27 24 23 24 28 30 30 29 26 23 20 21 22 24 25 25 25 26 26 27 28 29 31 33 33 33 33 32 32 32 33 35 37 37 36 34 33 33 33 33 32 31 31 31 31 30 29 27 26 25 24 24 23 23 24 24 25 24 24 23 22 21 21 21 20 20 20 20 19 18 18 17 17 17 17 17 17 17 17 17 17 17
25 24 25 28 29 25 20 21 25 29 31 32 30 26 22 21 20 20 21 23 24 26 26 26 26 27 29 30 30 30 30 30 30 31 33 35 36 37 36 34 33 32 31 31 30 30 30 30 30 29 28 27 26 25 24 24 23 24 24 24 25 25 24 23 22 21 21 21 21 20 20 20 19 19 18 18 17 17 17 17 17 17 17 17 17 17
23 23 23 25 27 27 23 24 26 28 29 29 29 27 25 23 22 18 15 17 22 25 26 26 27 27 26 27 27 27 28 28 28 30 31 33 35 35 35 33 32 32 30 30 29 29 29 29 29 28 27 26 26 25 24 23 23 23 24 25 25 24 23 23 22 21 21 21 21 20 20 19 19 19 18 18 18 18 18 18 18 18 17 17 17 17
18 19 19 21 23 24 24 26 26 25 24 23 20 18 20 24 25 22 17 16 20 24 25 26 27 29 29 28 26 26 26 27 27 28 29 31 32 32 31 31 31 31 30 29 28 28 29 28 28 27 26 26 25 24 23 23 23 23 24 24 25 24 23 22 22 21 21 21 21 20 20 19 19 18 18 18 18 18 18 18 18 18 18 17 17 17
18 19 18 18 20 22 24 22 18 15 15 17 13 9 13 22 26 25 23 23 24 26 26 25 26 28 30 30 28 27 26 27 28 28 29 29 30 30 30 30 30 31 30 29 28 28 28 27 26 26 25 25 24 23 23 23 23 23 24 24 24 24 23 22 21 21 21 21 21 20 20 19 19 18 18 18 18 18 18 18 18 18 18 17 17 17
14 15 13 11 12 16 21 19 12 8 11 16 18 18 20 22 24 24 24 24 26 26 25 23 23 24 26 28 29 28 27 26 26 27 28 29 31 31 32 32 32 32 32 31 30 29 28 27 26 25 25 24 23 23 23 23 23 24 24 24 24 23 22 22 21 21 21 21 20 20 19 19 19 18 18 18 18 18 18 18 18 18 18 18 17 17
9 10 10 8 7 10 16 18 15 12 14 19 22 22 22 21 21 21 20 20 22 23 21 19 19 20 21 24 26 27 27 26 24 24 26 28 31 33 33 33 33 33 33 32 32 31 30 28 27 26 26 25 24 24 24 23 24 24 24 24 23 22 22 21 21 21 21 21 20 20 19 19 19 19 18 18 18 18 18 18 18 18 18 18 17 17
10 10 10 9 7 8 14 19 19 18 18 18 19 19 18 17 19 21 21 19 20 19 14 10 9 11 15 21 25 27 27 26 24 23 24 25 29 33 33 33 31 30 31 31 32 32 31 30 29 28 27 26 25 25 25 24 24 24 24 23 23 22 22 21 21 21 21 20 20 20 19 19 19 19 18 18 18 18 18 18 18 18 18 18 17 17
11 8 7 8 6 8 16 18 21 24 22 19 18 19 20 20 21 22 21 20 17 13 9 6 5 4 6 12 20 27 29 27 25 24 24 23 26 31 33 32 30 29 29 30 31 32 32 31 30 30 28 27 27 26 25 25 25 24 24 23 22 22 21 21 21 21 20 20 20 19 19 19 19 19 18 18 18 18 18 18 18 18 18 18 18 18
11 9 7 7 7 9 16 17 18 19 19 19 20 21 21 22 22 20 19 18 14 9 6 6 6 5 4 4 13 25 32 30 27 24 22 22 24 28 32 32 30 28 27 28 29 31 32 32 31 30 29 27 27 27 26 25 25 24 24 23 22 21 21 21 21 20 20 20 19 19 19 19 19 19 19 18 19 19 19 18 18 18 18 18 18 18
11 13 11 8 9 13 17 18 18 17 16 17 18 19 18 20 21 20 18 17 15 12 9 7 6 6 5 4 12 24 33 32 28 24 20 20 21 25 31 31 29 27 25 26 28 30 32 32 31 29 27 26 26 26 26 25 24 24 23 22 21 21 21 21 20 20 20 20 19 19 19 19 19 19 19 19 19 19 19 18 18 18 18 18 18 18
14 16 17 17 17 17 18 20 20 18 17 19 20 20 18 19 19 19 18 18 18 18 16 11 8 9 12 13 17 24 31 33 28 23 19 18 18 22 29 30 27 24 23 24 26 29 31 30 29 27 26 25 25 25 25 25 23 22 21 21 21 21 21 20 20 20 20 20 19 19 19 19 19 19 19 18 18 19 18 18 18 18 18 18 18 18
18 18 21 22 22 20 18 19 20 20 20 21 21 21 19 18 17 17 18 19 19 19 18 12 12 16 19 18 18 23 31 33 28 21 18 16 15 18 25 29 27 23 22 22 24 27 29 28 27 26 25 24 24 25 24 23 22 21 21 20 20 20 20 20 20 20 20 20 19 19 19 19 18 18 18 18 18 18 18 18 18 18 18 18 18 19
22 22 24 26 26 26 25 26 26 26 26 26 23 20 18 15 14 15 18 18 18 17 17 16 18 21 21 18 19 24 31 33 30 23 17 9 9 15 22 26 25 22 20 20 23 25 27 26 25 24 24 24 24 24 23 21 21 20 20 20 20 20 20 20 20 20 20 20 19 19 19 18 18 18 18 18 18 18 18 18 18 18 18 19 19 19
27 27 27 27 28 28 29 30 31 31 30 30 27 23 20 19 19 19 21 21 21 22 23 23 20 16 15 15 17 22 28 32 31 26 16 8 7 12 20 23 23 20 19 20 21 23 24 24 23 24 24 25 24 23 21 20 20 19 19 19 20 20 20 20 20 20 20 20 19 19 18 18 18 18 17 17 17 17 17 18 18 18 19 19 19 19
29 28 28 28 28 29 29 30 30 29 29 30 30 29 29 28 28 27 27 27 26 23 20 17 12 9 9 11 15 19 25 28 28 23 14 7 6 11 18 21 20 18 18 19 21 22 22 22 23 24 25 25 24 22 20 20 19 19 19 19 19 20 20 20 21 20 20 20 19 19 18 18 17 17 17 17 17 17 17 17 18 18 19 19 19 19
30 30 30 31 32 32 32 31 31 31 31 30 30 30 30 30 29 28 26 24 21 18 15 12 8 6 7 9 11 15 21 26 26 23 16 8 7 11 17 21 20 17 17 18 19 20 21 22 23 25 26 25 24 22 20 19 18 18 18 19 19 20 20 21 21 21 20 20 19 19 18 18 17 17 17 17 17 17 17 17 18 18 19 19 19 19
35 36 36 37 38 38 38 37 36 36 36 34 33 31 28 25 23 20 17 16 16 16 13 8 4 4 5 7 8 11 18 23 25 24 19 12 8 10 15 20 19 16 15 16 18 19 20 22 24 26 26 25 23 22 20 18 18 18 18 19 19 20 20 20 20 21 20 20 19 19 18 17 17 17 17 17 17 17 17 17 18 18 18 19 19 19
38 40 41 42 42 42 41 40 40 40 40 39 37 33 27 22 17 13 11 13 17 16 10 7 6 5 5 4 6 10 16 20 22 22 21 15 9 7 12 18 19 16 13 14 16 18 19 21 23 25 25 24 22 21 20 18 17 18 18 19 19 19 20 20 20 20 20 20 19 19 18 18 17 17 17 17 17 17 17 17 18 18 18 18 18 18
37 38 39 39 40 41 41 41 40 40 40 39 36 32 27 22 16 10 8 15 19 17 9 8 8 6 5 5 6 9 14 16 19 21 20 16 9 5 12 17 19 16 13 12 14 17 18 18 20 23 24 23 21 20 20 19 18 17 18 18 19 19 19 20 20 20 20 20 19 19 18 18 17 17 17 17 17 17 18 18 18 18 18 18 18 18
37 38 39 39 39 39 38 38 38 38 38 36 32 29 28 25 20 16 17 21 20 15 9 9 8 6 5 4 5 8 10 12 17 20 20 14 7 6 14 16 17 16 13 11 10 12 14 16 18 20 22 22 21 20 20 20 20 19 18 18 18 18 19 19 20 20 19 19 19 19 18 18 17 17 17 17 18 18 18 18 18 18 18 18 18 18
36 37 38 38 37 35 33 33 33 33 33 31 29 28 30 30 28 26 25 24 21 15 8 8 7 5 4 5 4 4 5 11 17 21 21 12 6 7 14 15 16 16 15 10 6 4 7 12 16 19 21 21 21 21 21 21 22 21 20 19 18 18 18 18 18 19 19 19 18 18 18 18 17 18 18 18 18 18 18 18 18 18 17 18 18 18
35 35 35 35 33 30 28 26 26 26 26 25 24 26 29 31 30 28 26 25 24 21 14 10 8 7 6 6 5 4 4 13 20 24 23 14 9 10 15 14 15 18 18 12 6 2 2 5 12 18 21 22 22 22 22 21 21 21 20 20 19 19 18 17 17 16 17 17 17 17 17 17 17 18 18 18 18 18 18 18 17 17 17 17 18 18
34 34 33 31 28 25 23 21 20 19 18 17 18 22 26 28 27 25 24 26 26 25 21 16 12 11 10 8 6 5 5 14 23 27 26 17 12 13 17 15 15 18 20 16 9 4 3 1 5 13 19 20 21 21 21 20 19 19 19 19 20 20 19 18 17 15 15 15 15 15 16 16 17 17 17 17 17 17 17 17 17 16 16 17 17 18
33 31 29 26 23 21 19 17 15 14 13 13 16 19 22 23 23 22 22 24 25 24 21 19 16 13 12 10 6 4 7 15 24 30 29 20 13 12 16 15 15 17 18 16 11 6 4 2 3 7 13 17 19 20 20 19 18 18 19 19 20 20 20 20 19 18 17 16 15 15 14 15 15 15 16 16 16 16 16 16 16 16 16 16 17 17
29 25 22 19 18 16 15 14 13 12 12 14 15 16 17 17 18 18 18 20 21 21 20 20 18 16 12 7 4 4 8 16 25 31 31 23 15 13 16 16 16 16 16 12 9 6 4 4 5 5 7 13 16 17 18 18 18 18 18 19 19 20 20 20 20 19 18 18 17 16 15 15 15 15 15 14 14 15 15 15 15 15 15 16 17 17
23 20 17 14 13 11 10 10 9 9 10 11 11 11 12 12 13 14 14 16 17 18 18 18 19 19 17 11 6 5 9 18 26 31 31 25 19 15 16 17 18 17 15 12 9 5 2 4 6 6 5 7 11 15 16 18 18 18 18 18 18 18 18 18 17 17 16 16 16 16 16 16 16 16 16 16 16 16 15 15 15 15 16 16 16 16
18 15 13 11 9 8 6 6 6 6 6 7 8 8 9 10 10 11 12 13 15 15 15 15 16 17 18 16 14 12 14 22 28 30 29 25 21 17 15 15 18 19 15 13 10 6 3 3 5 6 5 3 4 9 14 17 19 19 18 17 16 15 15 15 14 14 14 14 15 15 16 17 17 18 18 19 18 18 17 16 16 15 16 16 16 16
14 12 11 9 7 6 5 4 5 5 6 6 7 8 9 10 10 11 11 13 14 14 14 14 14 14 14 16 16 17 20 24 27 28 27 24 21 18 15 14 17 19 17 14 11 9 6 4 3 4 3 2 2 4 7 13 16 17 16 14 13 12 13 13 13 13 14 14 15 16 16 17 17 18 19 19 18 17 17 16 15 15 15 15 15 16
11 10 9 7 6 5 5 4 4 5 7 8 9 10 11 12 13 13 13 14 15 16 16 16 15 14 13 13 14 16 20 23 25 26 25 22 20 18 16 15 16 18 18 17 15 13 8 5 4 3 2 2 3 4 6 9 12 13 13 13 13 13 13 13 14 14 15 16 16 17 17 17 17 17 17 16 16 15 15 15 15 14 14 14 14 15
9 8 7 7 6 6 5 5 5 6 8 10 11 13 14 15 15 15 16 16 17 17 18 18 17 16 15 13 13 14 17 21 23 24 23 21 19 18 18 17 17 17 18 18 17 16 12 7 4 3 3 2 3 5 8 10 11 12 12 12 12 14 14 14 14 15 15 15 15 15 15 15 15 15 15 14 14 14 15 15 15 14 14 14 14 15
9 7 6 6 7 7 7 7 8 9 11 12 13 15 16 16 16 17 17 18 18 19 19 19 19 18 17 16 16 16 18 20 21 22 22 21 19 18 18 18 19 18 18 17 16 16 15 11 8 7 7 4 4 5 8 9 11 11 11 9 8 10 12 12 12 12 13 13 13 13 13 13 12 13 13 13 13 14 14 14 14 13 13 13 14 15
8 6 5 6 7 8 8 9 11 12 13 14 15 15 16 17 17 18 18 19 19 20 20 21 21 21 19 18 18 18 18 19 20 21 21 20 19 17 15 17 18 19 18 17 16 17 16 14 11 10 9 7 6 6 7 9 10 10 10 8 8 9 10 10 11 11 10 10 10 10 10 10 11 11 11 12 12 13 13 13 13 13 13 13 14 15
7 6 6 7 8 9 10 12 13 14 15 16 15 14 15 15 16 16 17 17 18 18 20 22 22 21 20 19 18 18 18 18 18 19 18 18 16 14 12 12 13 15 17 17 17 16 16 15 13 12 10 8 6 5 5 7 9 10 10 10 10 9 9 9 9 8 8 8 8 7 8 9 10 11 11 12 12 13 13 13 14 14 15 15 15 16
6 6 8 9 11 12 13 14 14 15 15 14 13 12 13 14 14 15 15 15 15 16 17 18 19 18 17 16 16 16 16 16 16 16 15 14 13 12 10 8 9 11 15 16 16 15 15 14 13 12 12 11 9 6 5 7 9 10 11 11 9 6 3 5 5 6 6 6 7 7 8 10 11 12 12 13 14 14 14 14 15 15 15 16 16 17
6 8 9 11 12 14 14 14 14 13 13 12 11 11 12 13 14 15 15 15 15 15 16 16 17 17 15 13 13 13 14 14 14 13 12 11 10 9 8 7 8 10 13 15 15 14 13 12 11 11 11 10 9 8 8 7 8 9 10 11 10 9 7 5 5 6 7 8 9 10 11 12 12 13 14 15 15 15 15 15 15 16 16 16 17 18
8 9 10 11 12 12 12 12 12 12 12 12 11 11 12 13 13 14 15 15 15 15 15 16 15 12 9 8 9 10 11 12 12 11 10 9 9 8 7 7 8 9 11 13 14 13 12 10 10 10 10 10 10 10 9 9 9 9 10 10 11 12 13 11 10 10 10 12 13 13 13 13 13 14 15 16 16 16 15 15 16 16 16 17 17 18
8 9 10 10 11 11 11 12 12 12 12 12 11 11 12 13 14 14 15 15 15 14 14 15 12 8 5 6 8 9 8 8 9 9 9 8 8 8 7 7 8 9 10 11 11 11 11 10 9 8 8 8 10 11 12 11 11 10 11 11 11 12 13 14 14 14 14 15 15 14 13 12 13 14 15 15 16 16 15 15 16 16 16 17 17 18
8 9 9 10 10 10 11 12 12 12 11 11 11 11 12 13 14 14 14 14 14 13 12 12 11 8 7 7 8 8 7 7 7 7 8 8 9 8 8 8 8 8 9 9 9 9 9 9 9 8 8 7 7 9 12 13 13 12 12 12 11 12 13 14 15 15 14 15 14 13 12 12 12 13 14 15 15 16 16 16 16 16 16 16 17 18
8 8 9 10 10 10 10 11 11 11 11 11 11 11 12 13 13 13 13 13 13 12 11 10 9 8 7 8 8 9 8 8 7 8 8 9 9 9 8 8 8 8 8 7 7 8 8 8 9 10 10 10 8 8 10 12 12 12 12 12 11 12 12 13 14 14 13 13 12 12 12 12 13 13 14 14 15 15 16 16 15 15 15 16 16 17
8 8 9 9 10 10 10 11 11 11 11 11 11 11 11 12 12 12 12 12 12 11 10 9 8 7 6 6 8 9 9 8 8 8 9 10 10 10 9 8 8 7 7 7 7 8 8 10 12 13 14 15 14 12 11 12 12 12 12 11 11 12 12 13 13 13 13 12 12 11 12 12 13 14 14 14 14 14 16 16 15 15 15 15 16 17
7 8 9 9 9 9 10 10 11 10 11 11 11 11 11 11 12 12 12 12 11 10 9 8 8 6 5 6 7 8 8 8 8 8 10 11 11 11 10 10 9 8 7 6 5 5 6 8 11 14 16 18 18 17 15 13 12 11 11 12 12 12 12 13 13 13 13 12 12 12 12 13 13 14 14 13 14 15 16 16 15 15 15 15 15 16
7 7 8 8 9 9 9 10 10 10 11 11 12 11 11 11 12 12 12 11 10 9 9 9 8 7 6 6 7 8 8 9 9 9 10 11 12 12 12 11 10 8 5 1 1 2 2 2 3 6 9 13 15 15 16 14 12 9 8 10 12 12 13 13 14 13 12 12 12 12 12 13 13 14 14 13 12 12 13 14 14 14 13 13 14 15
Wind_Direction
261 261 261 260 258 256 256 254 253 251 249 249 249 248 247 245 243 242 242 240 239 238 238 239 239 239 240 242 243 243 242 240 237 234 231 230 231 232 230 227 224 222 220 220 220 220 220 220 220 219 219 219 220 222 224 228 232 235 237 235 234 233 233 233 233 232 231 231 232 232 234 235 237 238 240 240 241 242 243 244 246 247 250 251 253 254
260 260 260 259 256 254 253 253 251 249 248 247 247 247 247 244 243 242 242 240 239 238 238 238 238 238 239 241 242 242 242 240 237 234 231 230 230 231 230 226 223 221 219 219 219 219 219 218 218 217 217 218 219 221 225 229 233 235 235 233 232 232 232 231 230 230 229 229 229 230 231 233 234 236 237 238 239 240 242 244 245 247 249 251 252 253
261 260 259 258 255 252 251 251 250 248 247 246 246 246 246 244 242 242 241 240 239 238 237 237 237 238 239 240 241 241 242 240 237 234 231 230 230 230 228 225 222 219 218 218 217 217 217 217 216 216 216 217 219 222 225 229 231 232 231 231 231 231 230 230 229 228 228 227 228 228 229 231 233 234 235 236 237 239 241 243 245 247 249 250 252 253
262 260 259 258 256 253 252 251 250 248 247 247 246 245 244 242 241 241 242 241 240 239 238 237 237 238 239 239 239 240 240 239 237 234 231 231 231 230 228 224 220 218 216 215 215 215 216 216 216 216 216 217 219 221 225 227 228 229 229 230 230 230 230 228 227 226 226 226 226 226 227 229 230 232 233 234 236 238 240 243 245 247 249 250 251 252
264 260 259 259 257 255 252 251 250 249 248 246 244 242 241 240 239 240 241 241 240 239 238 237 236 236 237 238 238 239 239 238 237 234 232 232 232 230 228 224 220 217 214 212 212 213 214 215 215 216 216 217 218 220 223 224 225 227 229 230 230 229 228 227 226 225 225 224 224 225 226 227 229 230 232 233 235 237 240 242 244 247 248 249 250 251
268 263 260 259 257 256 254 252 250 248 246 244 242 240 238 238 237 238 238 238 238 238 238 237 236 235 235 236 237 238 239 239 237 235 234 232 230 228 227 224 221 216 213 211 211 212 213 213 214 214 215 216 218 219 220 222 224 226 228 228 228 228 227 226 225 224 224 223 223 224 225 226 228 229 231 233 235 237 240 243 245 246 248 249 250 251
271 266 262 259 257 255 254 253 250 247 243 242 240 238 237 236 235 235 235 236 236 236 237 237 236 235 234 235 236 237 238 239 239 237 234 231 227 225 224 223 220 217 214 213 212 211 210 210 211 212 213 215 217 219 220 221 223 225 226 226 226 226 225 224 223 223 222 222 222 223 224 226 227 229 231 233 235 238 241 243 245 246 248 249 250 251
273 268 262 258 256 255 253 252 249 247 244 245 244 240 236 235 233 233 233 234 234 234 234 235 235 235 234 234 234 234 235 236 236 235 231 227 224 221 221 220 219 217 216 214 212 209 207 207 208 210 212 214 217 218 220 221 222 223 224 225 225 224 223 222 222 221 221 221 222 223 224 226 227 229 231 233 236 238 241 243 245 246 247 248 249 250
272 268 262 257 254 252 251 249 248 246 246 248 248 244 237 234 232 232 232 232 233 233 232 232 233 234 235 234 233 232 232 231 229 226 224 222 219 217 217 217 217 217 216 214 210 207 205 205 206 209 212 215 218 220 221 223 223 223 223 224 224 223 222 221 220 220 220 221 222 223 225 226 228 230 232 234 237 239 241 243 244 245 246 247 248 249
269 266 263 258 254 249 246 246 246 246 246 248 249 247 239 231 227 228 230 231 233 233 232 230 230 232 234 234 233 231 230 229 226 223 219 216 214 213 213 213 214 214 214 211 208 205 204 205 206 209 213 217 220 222 224 225 224 223 223 223 222 222 220 220 220 220 220 221 222 224 226 227 229 231 233 236 238 240 241 242 243 244 245 246 247 248
270 266 263 263 260 255 248 247 247 245 243 244 247 246 238 229 223 222 225 230 232 232 232 230 229 229 230 231 230 228 226 225 223 221 217 214 212 211 210 210 210 210 210 209 207 205 205 206 208 211 216 220 223 225 226 225 223 222 221 221 221 220 219 219 219 220 221 222 224 225 227 229 231 232 235 237 239 240 241 241 242 242 243 245 246 248
269 266 264 265 265 264 260 256 249 242 236 236 238 238 231 225 222 220 220 226 229 229 228 227 227 227 227 226 224 222 220 219 218 217 215 213 211 209 207 206 206 206 206 206 206 207 208 209 210 214 218 222 224 226 225 223 221 220 220 220 220 219 219 219 219 220 222 223 225 227 228 230 232 234 236 238 239 240 240 240 241 241 242 244 245 248
264 264 264 263 264 266 268 263 252 234 225 226 226 222 222 224 222 220 221 225 227 227 224 223 224 226 226 224 220 217 215 214 214 213 211 211 210 208 205 203 202 202 203 204 205 207 209 211 214 217 220 222 224 224 222 220 219 218 218 218 218 218 218 218 219 221 223 225 227 228 230 232 233 235 236 238 239 239 239 239 240 241 242 244 245 247
261 261 261 259 259 263 266 261 252 230 224 226 226 225 225 223 219 217 220 226 228 225 220 217 219 223 223 221 219 215 212 210 210 210 209 209 209 207 205 202 201 202 202 202 204 207 209 210 213 216 219 220 221 220 220 219 218 218 218 218 218 218 218 219 220 222 224 226 227 229 231 232 234 235 236 237 238 238 239 239 240 241 242 244 245 247
263 263 260 254 252 257 261 260 256 244 235 232 230 228 226 220 214 211 215 223 226 223 215 211 214 218 220 218 216 213 209 206 204 204 207 209 209 208 205 202 201 202 202 202 204 207 208 209 210 213 215 216 217 217 217 217 218 218 218 217 217 217 218 219 221 223 225 227 228 229 231 232 234 235 236 237 237 238 238 239 240 241 243 244 246 248
270 268 262 258 255 253 255 257 258 257 251 242 233 226 221 215 214 215 218 222 223 218 208 202 206 217 222 220 215 210 205 201 200 201 204 207 209 208 205 202 201 201 202 203 205 207 209 209 211 213 214 214 214 215 216 217 217 217 217 216 216 217 218 220 222 224 225 227 228 229 231 232 233 234 236 236 237 237 238 239 240 242 244 245 247 248
270 264 258 257 255 254 255 251 254 258 258 252 240 230 224 220 219 219 219 221 219 213 202 191 190 204 220 220 215 210 203 199 199 201 203 207 209 208 206 202 200 200 201 203 206 208 209 211 213 215 215 215 215 216 217 218 218 217 216 215 216 217 218 220 222 224 226 227 228 229 231 232 233 234 235 236 237 237 238 239 240 242 244 245 247 248
268 262 259 257 257 258 257 252 249 249 252 252 248 240 230 226 223 221 219 218 215 208 200 199 202 204 201 199 210 209 203 198 197 200 203 207 209 208 205 202 201 200 201 203 206 209 210 212 214 215 216 217 217 218 219 219 218 216 215 214 215 216 218 220 223 224 226 227 228 229 230 231 233 234 236 237 237 237 238 239 240 242 243 245 247 249
268 266 264 261 262 264 263 260 254 250 248 247 245 239 231 228 225 221 218 215 212 209 203 204 210 212 207 206 207 204 199 196 195 197 201 206 207 206 203 200 200 200 201 203 206 209 211 213 216 217 218 218 219 220 219 218 216 215 214 214 215 217 219 221 223 224 225 226 227 229 230 232 234 235 236 237 237 237 238 239 240 241 243 245 246 248
273 268 265 265 267 268 269 268 263 254 246 244 245 245 240 232 225 220 216 214 213 213 211 211 213 218 218 215 205 197 194 192 192 195 200 203 202 200 199 197 196 198 200 203 207 210 212 214 216 218 219 219 219 219 217 216 214 213 213 214 215 217 219 221 223 224 224 225 227 229 231 233 235 236 236 237 237 237 237 238 239 241 243 245 247 248
276 271 268 266 268 271 272 269 263 255 249 247 246 245 243 234 226 220 217 214 213 213 213 215 219 221 220 215 201 191 189 187 188 192 199 200 199 196 195 195 195 196 200 204 208 212 214 216 217 218 218 218 217 216 214 213 211 212 213 214 216 218 220 222 223 223 224 225 227 230 232 234 235 236 236 237 237 237 237 238 239 241 243 245 247 249
278 276 274 270 268 268 269 268 266 262 258 257 252 247 242 230 220 216 214 210 209 210 213 217 222 222 219 212 199 190 189 187 187 190 192 190 192 193 193 192 193 196 200 205 210 213 215 217 218 219 217 216 214 212 211 210 211 212 214 216 218 220 222 222 223 223 224 226 228 230 232 234 235 236 236 236 236 237 237 238 240 242 244 246 247 249
279 278 276 273 269 267 267 268 268 265 261 261 257 250 242 229 220 216 214 211 210 213 215 216 215 212 206 197 189 186 187 188 188 188 184 181 184 188 188 187 190 196 203 206 208 211 214 216 218 218 216 214 212 211 209 210 211 213 215 218 220 222 223 224 224 224 225 226 229 231 233 234 234 235 234 235 236 237 239 240 241 243 245 247 248 250
281 280 278 276 272 270 270 270 269 265 261 260 261 259 251 242 234 227 222 217 213 210 203 193 179 165 166 169 171 176 183 186 186 184 180 179 178 178 180 181 186 195 203 206 206 207 210 213 216 216 215 214 212 210 210 211 212 215 218 220 223 224 225 225 225 225 226 227 229 231 233 233 233 234 234 234 236 237 239 242 243 244 246 248 249 251
283 282 281 279 276 274 273 272 270 266 262 262 264 264 258 248 239 230 224 214 204 190 174 159 140 128 148 156 163 174 182 184 184 182 179 178 167 167 173 178 183 191 199 202 203 205 206 210 213 215 215 214 213 212 211 212 214 217 220 223 225 226 226 226 226 226 227 227 229 231 232 232 233 233 234 235 236 238 240 242 244 246 247 249 250 252
285 284 282 281 278 276 274 272 271 268 265 265 267 266 257 242 227 212 197 186 175 166 160 157 167 179 166 165 171 180 184 185 185 184 181 175 160 160 172 178 182 186 189 192 197 200 203 207 211 214 214 214 214 213 212 214 216 219 222 225 227 228 228 228 227 227 227 228 229 230 231 231 232 233 233 235 237 238 241 243 244 246 248 249 251 253
290 288 285 283 280 278 275 273 272 270 268 267 268 265 252 230 205 179 164 171 172 170 170 178 187 183 172 178 185 184 183 184 186 185 181 171 158 156 171 177 180 180 178 184 192 197 200 205 210 212 213 213 213 212 212 214 218 221 225 227 229 230 229 229 228 227 227 228 228 229 230 230 231 233 234 236 238 239 241 243 245 246 247 249 251 252
294 291 289 287 284 281 278 275 273 271 269 269 268 261 245 220 195 177 190 190 185 181 182 188 189 183 179 186 185 179 177 182 185 183 176 163 152 154 166 172 175 175 173 177 187 194 199 205 209 212 213 213 213 213 214 216 219 223 227 230 231 231 231 230 229 227 227 227 227 228 229 230 232 233 235 237 239 241 242 244 245 246 247 248 249 251
296 294 293 290 286 282 278 275 273 271 270 270 266 255 238 220 206 199 204 196 189 184 192 197 194 185 171 164 160 163 171 183 185 181 171 158 144 149 159 165 170 172 170 165 172 186 199 206 210 212 213 213 214 215 217 220 223 226 229 231 232 232 231 230 229 227 226 226 227 228 229 231 233 236 237 239 241 242 243 244 245 246 247 247 249 250
295 293 291 288 284 279 275 272 271 271 272 272 265 249 233 224 218 214 210 198 188 186 194 197 191 173 147 132 126 143 182 193 188 180 172 162 147 148 156 162 169 172 167 157 149 171 207 211 211 211 213 214 215 217 220 224 226 228 229 229 229 229 228 227 226 226 225 226 227 229 231 233 236 238 240 242 243 244 244 244 245 246 247 248 249 250
292 290 286 282 278 274 270 269 270 272 272 271 259 240 226 221 219 218 212 198 192 193 196 194 183 168 154 145 150 168 194 194 188 182 176 167 157 156 160 164 171 175 172 164 152 145 205 218 212 211 213 215 217 219 222 225 227 228 227 225 224 222 221 220 221 222 224 226 228 231 234 236 239 241 242 243 244 244 244 244 244 245 246 248 249 250
290 287 282 276 272 268 266 266 267 267 265 257 239 222 214 213 214 213 209 202 198 198 197 192 183 176 174 174 175 174 173 180 182 182 179 172 161 159 164 166 171 176 178 173 165 149 151 192 203 204 208 212 216 219 221 222 223 223 222 221 220 219 217 216 216 218 222 226 230 234 236 239 241 242 242 243 243 243 243 243 243 244 245 247 248 249
288 284 277 271 264 261 260 259 257 251 241 225 210 204 204 207 209 210 209 205 202 199 195 188 180 177 179 179 174 156 153 167 176 180 179 172 161 158 165 166 169 174 179 179 172 155 141 139 160 180 194 202 208 214 216 217 217 216 216 216 217 217 217 218 219 222 225 228 231 234 237 239 241 242 242 242 242 242 243 243 244 244 245 246 247 248
283 277 269 263 257 253 252 247 240 228 214 203 197 197 200 204 207 207 206 204 202 200 195 188 181 176 174 168 151 134 147 164 175 180 180 172 160 156 165 167 170 172 176 179 174 157 126 130 132 144 171 190 200 206 210 212 212 213 215 217 218 220 221 223 226 228 230 231 232 233 235 237 238 239 240 241 242 243 244 245 246 246 246 246 246 247
275 266 258 253 248 243 237 228 217 207 197 191 189 189 192 195 196 197 196 195 195 195 194 191 185 179 175 168 157 149 157 167 174 178 180 174 164 158 163 170 173 174 174 178 175 160 120 131 138 137 139 173 194 204 210 212 214 215 218 221 224 225 226 227 228 229 230 232 233 233 234 236 237 238 239 241 243 245 247 249 250 249 248 246 244 244
263 255 249 243 237 228 214 197 184 176 171 170 169 168 170 171 172 174 176 178 180 181 180 179 178 176 175 173 170 165 163 166 171 175 178 176 168 161 161 171 175 175 174 178 178 170 145 132 143 146 136 134 182 204 212 215 217 220 222 225 227 227 226 226 226 228 230 232 235 237 238 239 241 242 244 245 247 249 250 251 252 251 249 247 244 242
252 246 241 232 221 208 191 173 156 143 134 137 138 141 144 144 145 147 151 156 159 159 156 153 153 156 163 169 170 167 164 164 167 171 175 174 171 166 164 169 174 175 175 176 176 172 156 133 133 146 146 141 165 194 203 209 213 217 220 221 222 221 222 223 225 229 233 238 241 243 244 246 247 248 249 250 251 252 251 251 250 249 248 248 245 244
247 242 234 223 208 194 178 159 143 131 126 126 126 128 131 132 133 134 135 138 141 141 139 136 135 137 143 151 158 161 161 160 162 167 170 172 172 169 166 166 172 178 181 177 173 170 161 146 146 161 181 193 195 188 182 189 197 204 209 213 215 218 222 225 229 234 239 244 246 248 249 251 252 253 253 254 254 253 252 249 247 246 246 247 246 247
243 238 228 214 202 190 175 158 145 137 133 130 130 130 130 129 129 129 128 128 129 129 129 127 125 124 126 129 136 144 150 154 158 163 166 169 172 174 171 168 171 179 184 182 176 172 169 166 163 166 173 187 196 190 184 183 187 194 202 212 221 227 228 231 235 239 243 246 248 250 251 251 251 252 253 253 253 254 253 253 251 249 249 249 250 250
244 235 221 205 195 187 175 163 154 146 140 135 133 132 130 126 124 122 121 121 120 121 122 122 120 118 118 120 126 135 143 150 156 161 165 170 175 180 181 177 176 178 182 184 183 181 180 181 180 173 164 155 159 170 174 180 187 194 202 214 229 237 239 240 242 244 244 245 246 248 248 248 248 250 252 252 253 254 255 257 258 257 256 257 258 259
244 226 203 188 182 177 170 162 155 149 143 138 134 130 127 123 119 116 114 113 113 114 116 116 115 114 115 120 127 134 141 148 155 161 166 171 176 182 188 188 185 183 184 187 191 193 192 193 188 179 167 155 148 153 166 180 191 199 206 213 227 241 251 256 256 252 247 243 242 242 245 248 250 252 253 255 257 257 259 263 265 266 264 263 262 260
236 206 183 170 164 160 159 156 152 148 145 139 133 128 126 125 122 119 115 112 110 111 113 114 113 110 109 113 122 132 140 147 154 161 167 172 176 181 187 194 195 194 192 191 194 198 201 201 196 190 184 176 164 157 178 197 207 214 219 224 235 251 265 262 254 245 239 236 234 236 242 249 254 257 260 264 265 265 266 267 268 268 267 265 263 260
214 187 173 164 160 157 155 151 148 145 142 136 131 129 129 128 127 124 120 115 113 113 115 116 115 112 109 107 112 123 135 145 153 159 164 169 174 180 186 195 204 206 202 195 194 197 202 205 205 203 203 203 202 196 193 211 221 226 230 234 236 239 249 241 230 222 223 228 234 240 247 253 259 264 269 271 272 271 270 269 268 267 265 263 262 261
191 172 163 159 157 154 150 148 146 144 140 133 129 128 128 128 126 124 120 117 116 116 117 118 117 114 109 108 109 115 126 140 148 153 157 164 171 180 187 195 204 210 210 201 195 194 197 201 206 210 213 216 218 220 222 223 226 229 233 237 235 229 224 227 226 225 231 240 247 253 258 263 269 274 276 276 275 274 273 272 271 269 267 265 263 261
174 161 155 154 152 150 147 147 146 144 139 134 129 127 128 127 126 124 122 120 119 119 120 121 118 113 109 113 116 118 123 133 142 148 154 163 172 181 188 195 200 205 209 207 203 199 195 196 202 209 215 220 226 230 232 232 232 234 237 239 240 240 240 245 248 248 248 253 258 263 268 273 276 278 277 277 277 276 276 275 273 271 269 266 264 262
167 159 156 155 155 154 153 152 148 141 136 134 131 129 130 129 128 126 126 124 123 122 124 125 123 119 117 124 127 127 125 129 136 145 155 163 171 178 182 187 193 199 203 207 210 211 209 205 202 204 210 221 232 239 241 239 238 237 240 241 243 245 248 251 253 254 256 259 263 268 274 277 277 275 273 274 276 277 276 274 271 269 267 265 263 261
166 162 162 160 158 156 154 152 148 141 136 133 132 132 133 133 131 129 127 126 125 124 123 122 119 118 123 131 135 137 135 135 139 149 158 164 168 170 171 174 182 190 197 202 207 214 218 219 217 215 216 222 234 243 244 242 240 238 239 242 245 246 248 252 255 259 262 263 266 270 274 273 269 267 268 271 274 275 273 270 267 265 263 262 261 260
179 172 167 163 159 156 154 152 149 145 140 137 135 135 136 136 133 130 128 127 127 126 123 120 116 115 120 129 139 144 144 146 149 155 163 168 169 168 166 169 175 182 189 197 206 214 222 228 230 229 227 227 232 240 244 244 242 240 241 244 247 248 251 255 261 265 268 268 270 272 270 266 262 262 266 270 271 271 268 266 264 262 261 260 259 259
187 177 171 166 162 159 157 155 152 148 143 140 138 138 138 137 135 132 130 129 129 128 126 123 121 121 123 132 141 147 147 149 152 158 165 171 173 173 172 173 177 184 193 204 216 229 238 243 243 240 237 235 235 239 244 246 246 246 247 249 249 251 254 260 265 269 271 272 273 273 270 266 265 265 265 265 267 270 269 268 266 263 261 260 259 259
192 182 175 169 165 163 161 158 155 150 146 143 142 140 138 134 131 130 131 131 130 129 128 128 126 126 130 138 146 150 151 152 154 159 167 174 177 177 178 179 182 187 196 211 231 249 259 257 253 248 244 241 238 238 239 243 248 251 252 252 253 254 256 261 267 271 273 274 274 273 270 267 266 263 261 260 265 271 274 273 271 267 265 263 262 261
196 185 177 171 167 164 161 158 155 152 148 147 145 142 137 132 130 130 133 132 131 129 128 129 129 131 139 146 152 157 158 157 155 159 168 176 178 179 179 180 182 182 179 175 336 330 331 319 286 262 249 238 237 237 236 236 238 243 249 253 256 257 259 262 268 273 275 275 273 271 268 264 261 257 255 257 265 274 278 277 275 272 269 266 264 263